Weather History for KTOI - January, 2013

Change the Weather History Date:

Saturday, January 5, 2013

  Actual Average Record
Temperature  
Mean Temperature 42 °F 46 °F  
Max Temperature 54 °F 58 °F - ()
Min Temperature 30 °F 35 °F - ()
Degree Days  
Heating Degree Days 23 19  
Month to date heating degree days 87 95  
Since 1 July heating degree days 926 1012  
Moisture  
Dew Point 30 °F    
Average Humidity 62    
Maximum Humidity 92    
Minimum Humidity 32    
Precipitation  
Precipitation 0.00 in 0.18 in - ()
Month to date precipitation 0.64 0.82  
Year to date precipitation 0.64 0.82  
Snow  
Snow 0.00 in - - ()
Month to date snowfall 0.0  
Since 1 July snowfall 0.0  
Snow Depth 0.00 in    
Sea Level Pressure  
Sea Level Pressure 30.34 in    
Wind  
Wind Speed 2 mph (NNE)    
Max Wind Speed 10 mph    
Max Gust Speed 15 mph    
Visibility 10 miles    
Events      
T = Trace of Precipitation, MM = Missing Value Source: NWS Daily Summary

Daily Weather History Graph

Daily Weather History Graph

Search for Another Location

Airport or City:

Trip Planner

Search our weather history database for the weather conditions in past years. The results will help you decide how hot, cold, wet, or windy it might be!

Date:

Astronomy

Jan. 05, 2013 Rise Set
Actual Time 6:45 AM CST 4:54 PM CST
Civil Twilight 6:18 AM CST 5:21 PM CST
Nautical Twilight 5:47 AM CST 5:51 PM CST
Astronomical Twilight 5:18 AM CST 6:21 PM CST
Moon 12:03 AM CST (1/5) 11:33 AM CST (1/5)
Length of Visible Light 11h 02m
Length of Day
10h 09m
Last Quarter, 44% of the Moon is Illuminated
Jan 5
Last Quarter
Jan 11
New
Jan 18
First Quarter
Jan 26
Full
Feb 3
Last Quarter

Hourly Weather History & Observations

Time (CST) Temp. Windchill Dew Point Humidity Pressure Visibility Wind Dir Wind Speed Gust Speed Precip Events Conditions
12:53 AM 34.0 °F - 30.0 °F 85% 30.36 in 10.0 mi Calm Calm - N/A   Clear
1:53 AM 33.1 °F - 30.0 °F 89% 30.35 in 10.0 mi Calm Calm - N/A   Clear
2:53 AM 33.1 °F - 30.0 °F 89% 30.36 in 10.0 mi Calm Calm - N/A   Clear
3:53 AM 30.0 °F - 28.9 °F 96% 30.36 in 9.0 mi Calm Calm - N/A   Clear
4:53 AM 32.0 °F - 28.9 °F 88% 30.37 in 10.0 mi Calm Calm - N/A   Clear
5:53 AM 30.9 °F - 28.9 °F 92% 30.37 in 10.0 mi Calm Calm - N/A   Clear
6:53 AM 33.1 °F - 28.9 °F 85% 30.39 in 10.0 mi Calm Calm - N/A   Clear
7:53 AM 37.0 °F - 30.9 °F 79% 30.40 in 10.0 mi Calm Calm - N/A   Clear
8:53 AM 44.1 °F 38.1 °F 28.9 °F 55% 30.38 in 10.0 mi East 11.5 mph - N/A   Clear
9:53 AM 48.0 °F - 27.0 °F 44% 30.39 in 10.0 mi ENE 4.6 mph - N/A   Clear
10:53 AM 51.1 °F - 25.0 °F 36% 30.38 in 10.0 mi Calm Calm - N/A   Clear
11:53 AM 52.0 °F - 24.1 °F 34% 30.35 in 10.0 mi Calm Calm - N/A   Clear
12:53 PM 53.1 °F - 26.1 °F 35% 30.30 in 10.0 mi Calm Calm - N/A   Clear
1:53 PM 53.1 °F - 25.0 °F 34% 30.29 in 10.0 mi Calm Calm - N/A   Clear
2:53 PM 54.0 °F - 26.1 °F 34% 30.30 in 10.0 mi Calm Calm - N/A   Clear
3:53 PM 52.0 °F - 28.0 °F 40% 30.31 in 10.0 mi SE 3.5 mph - N/A   Partly Cloudy
4:53 PM 50.0 °F - 34.0 °F 54% 30.32 in 10.0 mi NNW 5.8 mph - N/A   Mostly Cloudy
5:53 PM 48.0 °F - 32.0 °F 54% 30.33 in 10.0 mi North 4.6 mph - N/A   Scattered Clouds
6:53 PM 48.0 °F - 35.1 °F 61% 30.35 in 10.0 mi Calm Calm - N/A   Overcast
7:53 PM 46.9 °F - 35.1 °F 63% 30.32 in 10.0 mi Calm Calm - N/A   Overcast
8:53 PM 48.0 °F - 33.1 °F 56% 30.31 in 10.0 mi Calm Calm - N/A   Overcast
9:53 PM 48.0 °F - 33.1 °F 56% 30.29 in 10.0 mi Calm Calm - N/A   Overcast
10:53 PM 48.0 °F - 34.0 °F 58% 30.27 in 10.0 mi Calm Calm - N/A   Overcast
11:53 PM 48.0 °F - 35.1 °F 61% 30.25 in 10.0 mi NNW 8.1 mph - N/A   Overcast